Location: Neuvy Saint Sepulchre
(46.5953°N, 1.8122°E)
Time: 22:06:00
(UTC+02:00)

ISS - Pass Details

Date: 01 April 2019
Orbit: 408 x 410 km, 51.6° (Epoch: 23 April)

Event Time Altitude Azimuth Distance (km) Brightness Sun altitude
Rises 21:44:16 0° 294° (WNW) 2,339 2.0 -14.5°
Reaches altitude 10° 21:46:25 10° 301° (WNW) 1,476 0.4 -14.9°
Maximum altitude 21:49:36 43° 15° (NNE) 588 -3.0 -15.4°
Enters shadow 21:50:55 28° 69° (ENE) 812 -2.7 -15.6°
